Rockwall, TX

7:51 PM CST on November 22, 2019 (GMT -0600)
Rockwall

Weather History for KF46 - October, 2019

Change the Weather History Date:

Friday, October 18, 2019

  Actual Average (KDFW) Record (KDFW)
Temperature  
Mean Temperature 62 °F -  
Max Temperature 77 °F 75 °F 93 °F (1921)
Min Temperature 47 °F 54 °F 38 °F (1948)
Degree Days  
Heating Degree Days 4    
Growing Degree Days 12 (Base 50)    
Moisture  
Dew Point 46 °F    
Average Humidity 62    
Maximum Humidity 100    
Minimum Humidity 26    
Precipitation  
Precipitation 0.00 in - - ()
Sea Level Pressure  
Sea Level Pressure 29.85 in    
Wind  
Wind Speed 5 mph ()    
Max Wind Speed 10 mph    
Max Gust Speed -    
Visibility 10.0 miles    
Events      
Averages and records for this station are not official NWS values.
T = Trace of Precipitation, MM = Missing Value Source: Averaged Metar Reports

Daily Weather History Graph

Daily Weather History Graph

Search for Another Location

Airport or City:

Astronomy

Oct. 18, 2019 Rise Set
Actual Time 7:32 AM CDT 6:49 PM CDT
Civil Twilight 7:07 AM CDT 7:14 PM CDT
Nautical Twilight 6:38 AM CDT 7:42 PM CDT
Astronomical Twilight 6:09 AM CDT 8:11 PM CDT
Moon 10:18 PM CDT (10/18) 11:54 AM CDT (10/18)
Length of Visible Light 12h 07m
Length of Day
11h 17m
Waning Gibbous, 78% of the Moon is Illuminated
Oct 18
Waning Gibbous
Oct 21
Last Quarter
Oct 27
New
Nov 4
First Quarter
Nov 12
Full

Hourly Weather History & Observations

Time (CDT) Temp. Dew Point Humidity Pressure Visibility Wind Dir Wind Speed Gust Speed Precip Events Conditions
12:15 AM 53.8 °F 46.6 °F 77% 29.94 in 10.0 mi ESE 5.8 mph - N/A   Clear
12:35 AM 53.1 °F 46.4 °F 78% 29.93 in 10.0 mi ESE 5.8 mph - N/A   Clear
12:55 AM 52.7 °F 46.6 °F 80% 29.92 in 10.0 mi ESE 5.8 mph - N/A   Clear
1:15 AM 52.7 °F 46.6 °F 80% 29.92 in 10.0 mi ESE 5.8 mph - N/A   Clear
1:35 AM 52.0 °F 46.4 °F 81% 29.91 in 10.0 mi ESE 4.6 mph - N/A   Clear
1:55 AM 51.8 °F 46.4 °F 82% 29.92 in 10.0 mi SE 4.6 mph - N/A   Clear
2:15 AM 51.4 °F 46.4 °F 83% 29.92 in 10.0 mi SE 4.6 mph - N/A   Clear
2:35 AM 52.2 °F 46.8 °F 82% 29.92 in 10.0 mi SE 5.8 mph - N/A   Clear
2:55 AM 52.2 °F 46.8 °F 82% 29.93 in 10.0 mi SE 4.6 mph - N/A   Clear
3:15 AM 51.6 °F 46.6 °F 83% 29.93 in 10.0 mi SE 4.6 mph - N/A   Clear
3:35 AM 50.9 °F 46.6 °F 85% 29.92 in 10.0 mi SE 4.6 mph - N/A   Clear
3:55 AM 50.9 °F 46.9 °F 86% 29.93 in 10.0 mi SSE 4.6 mph - N/A   Clear
4:15 AM 50.9 °F 47.3 °F 87% 29.92 in 10.0 mi SSE 4.6 mph - N/A   Clear
4:35 AM 50.5 °F 47.8 °F 90% 29.93 in 10.0 mi South 4.6 mph - N/A   Clear
4:55 AM 49.6 °F 47.7 °F 93% 29.92 in 10.0 mi SSE 4.6 mph - N/A   Clear
5:15 AM 50.7 °F 48.7 °F 93% 29.91 in 10.0 mi SSE 8.1 mph - N/A   Clear
5:35 AM 50.9 °F 48.2 °F 90% 29.92 in 10.0 mi South 4.6 mph - N/A   Clear
5:55 AM 50.0 °F 47.8 °F 92% 29.92 in 10.0 mi South 4.6 mph - N/A   Clear
6:15 AM 49.3 °F 47.8 °F 95% 29.93 in 10.0 mi SSW 3.5 mph - N/A   Clear
6:35 AM 48.2 °F 47.3 °F 97% 29.92 in 10.0 mi Calm Calm - N/A   Clear
6:55 AM 48.6 °F 47.8 °F 97% 29.93 in 10.0 mi SE 4.6 mph - N/A   Clear
7:15 AM 48.2 °F 47.7 °F 98% 29.92 in 10.0 mi SE 5.8 mph - N/A   Clear
7:35 AM 48.2 °F 47.7 °F 98% 29.93 in 10.0 mi SE 5.8 mph - N/A   Clear
7:55 AM 47.5 °F 47.5 °F 100% 29.92 in 10.0 mi ESE 5.8 mph - N/A   Clear
8:15 AM 48.6 °F 48.2 °F 99% 29.92 in 10.0 mi ESE 4.6 mph - N/A   Clear
8:35 AM 50.4 °F 48.9 °F 95% 29.93 in 10.0 mi Calm Calm - N/A   Clear
8:55 AM 52.9 °F 49.1 °F 87% 29.94 in 10.0 mi ESE 4.6 mph - N/A   Clear
9:15 AM 54.3 °F 50.0 °F 85% 29.94 in 10.0 mi East 3.5 mph - N/A   Clear
9:35 AM 56.1 °F 49.5 °F 78% 29.93 in 10.0 mi ESE 5.8 mph - N/A   Clear
9:55 AM 57.6 °F 49.5 °F 74% 29.93 in 10.0 mi SE 4.6 mph - N/A   Clear
10:15 AM 59.9 °F 50.0 °F 70% 29.93 in 10.0 mi SE 6.9 mph - N/A   Clear
10:35 AM 61.7 °F 50.2 °F 66% 29.93 in 10.0 mi SSE 6.9 mph - N/A   Clear
10:55 AM 62.6 °F 49.3 °F 62% 29.92 in 10.0 mi SSE 5.8 mph - N/A   Clear
11:15 AM 64.6 °F 49.3 °F 58% 29.92 in 10.0 mi SE 6.9 mph - N/A   Clear
11:35 AM 65.5 °F 47.8 °F 53% 29.91 in 10.0 mi South 4.6 mph - N/A   Clear
11:55 AM 67.8 °F 49.3 °F 51% 29.90 in 10.0 mi SE 6.9 mph - N/A   Clear
12:15 PM 69.3 °F 45.9 °F 43% 29.90 in 10.0 mi South 4.6 mph - N/A   Clear
12:35 PM 69.3 °F 43.5 °F 39% 29.88 in 10.0 mi SSE 9.2 mph - N/A   Clear
12:55 PM 70.9 °F 44.1 °F 38% 29.87 in 10.0 mi SSE 9.2 mph - N/A   Clear
1:15 PM 72.5 °F 44.4 °F 36% 29.85 in 10.0 mi SE 9.2 mph - N/A   Clear
1:35 PM 73.0 °F 45.9 °F 38% 29.84 in 10.0 mi SE 8.1 mph - N/A   Clear
1:55 PM 73.0 °F 44.2 °F 36% 29.82 in 10.0 mi SE 8.1 mph - N/A   Clear
2:15 PM 74.5 °F 45.3 °F 35% 29.81 in 10.0 mi SSE 8.1 mph - N/A   Clear
2:35 PM 74.8 °F 45.0 °F 34% 29.80 in 10.0 mi SSE 9.2 mph - N/A   Clear
2:55 PM 75.4 °F 43.5 °F 32% 29.79 in 10.0 mi South 10.4 mph - N/A   Clear
3:15 PM 76.1 °F 45.5 °F 34% 29.78 in 10.0 mi SE 8.1 mph - N/A   Clear
3:35 PM 75.9 °F 42.6 °F 30% 29.77 in 10.0 mi ESE 6.9 mph - N/A   Clear
3:55 PM 76.6 °F 41.0 °F 28% 29.76 in 10.0 mi SSE 8.1 mph - N/A   Clear
4:15 PM 76.6 °F 39.2 °F 26% 29.76 in 10.0 mi SSE 5.8 mph - N/A   Clear
4:35 PM 76.6 °F 39.0 °F 26% 29.75 in 10.0 mi SSE 6.9 mph - N/A   Clear
4:55 PM 76.6 °F 39.6 °F 26% 29.75 in 10.0 mi SSE 9.2 mph - N/A   Clear
5:15 PM 76.1 °F 39.9 °F 27% 29.75 in 10.0 mi SSE 10.4 mph - N/A   Clear
5:35 PM 75.6 °F 39.7 °F 28% 29.75 in 10.0 mi SSE 5.8 mph - N/A   Clear
5:55 PM 74.5 °F 40.1 °F 29% 29.75 in 10.0 mi SSE 8.1 mph - N/A   Clear
6:15 PM 73.0 °F 40.3 °F 31% 29.75 in 10.0 mi SE 5.8 mph - N/A   Clear
6:35 PM 71.2 °F 40.6 °F 33% 29.75 in 10.0 mi SE 4.6 mph - N/A   Clear
6:55 PM 68.9 °F 41.0 °F 36% 29.75 in 10.0 mi ESE 5.8 mph - N/A   Clear
7:15 PM 67.3 °F 41.7 °F 39% 29.75 in 10.0 mi SE 4.6 mph - N/A   Clear
7:35 PM 66.7 °F 43.0 °F 42% 29.76 in 10.0 mi SE 5.8 mph - N/A   Clear
7:55 PM 65.8 °F 43.7 °F 45% 29.76 in 10.0 mi SE 5.8 mph - N/A   Clear
8:15 PM 65.3 °F 44.1 °F 46% 29.76 in 10.0 mi SE 6.9 mph - N/A   Clear
8:35 PM 64.4 °F 44.6 °F 49% 29.76 in 10.0 mi SE 5.8 mph - N/A   Clear
8:55 PM 64.2 °F 44.8 °F 49% 29.75 in 10.0 mi ESE 8.1 mph - N/A   Clear
9:15 PM 63.7 °F 44.6 °F 50% 29.75 in 10.0 mi SE 8.1 mph - N/A   Clear
9:35 PM 63.9 °F 45.0 °F 50% 29.76 in 10.0 mi SE 8.1 mph - N/A   Clear
9:55 PM 63.0 °F 45.9 °F 54% 29.76 in 10.0 mi SE 5.8 mph - N/A   Clear
10:15 PM 62.2 °F 46.4 °F 56% 29.76 in 10.0 mi SE 5.8 mph - N/A   Clear
10:35 PM 61.7 °F 46.4 °F 57% 29.76 in 10.0 mi SE 6.9 mph - N/A   Clear
10:55 PM 61.3 °F 46.2 °F 58% 29.76 in 10.0 mi SE 5.8 mph - N/A   Clear
11:15 PM 61.0 °F 46.0 °F 58% 29.76 in 10.0 mi SE 5.8 mph - N/A   Clear
11:35 PM 60.3 °F 46.0 °F 59% 29.75 in 10.0 mi SE 6.9 mph - N/A   Clear
11:55 PM 59.7 °F 46.4 °F 61% 29.75 in 10.0 mi ESE 5.8 mph - N/A   Clear